Regional Weather Roundup
Issued by NWS

Home | Current Version | Previous Version | Text Only | Print | Product List | Glossary On
Versions: 1 2 3 4 5 6 7 8 9 10 11 12 13 14 15 16 17 18 19 20 21 22 23 24 25 26 27 28 29 30 31 32 33 34 35 36 37 38 39 40 41 42 43 44 45 46 47 48 49 50
000
ASUS43 KTOP 290608
RWRKS

WEATHER ROUNDUP FOR KANSAS
NATIONAL WEATHER SERVICE GOODLAND KS
100 AM CDT MON MAY 29 2017

NOTE:  "FAIR" INDICATES FEW OR NO CLOUDS BELOW 12,000 FEET WITH NO
SIGNIFICANT WEATHER AND/OR OBSTRUCTIONS TO VISIBILITY.

KSZ001>006-013>018-027>032-041>047-290700-
NORTHWEST KANSAS

CITY           SKY/WX    TMP DP  RH WIND       PRES   REMARKS
GOODLAND       MOCLDY    55  47  74 W6        30.16R
6HR MIN TEMP:  53; 6HR MAX TEMP:  73;

HAYS           CLEAR     56  53  90 W6        30.02S
HILL CITY      CLEAR     59  52  77 NW8       30.05R
6HR MIN TEMP:  56; 6HR MAX TEMP:  79;

RUSSELL        CLEAR     60  52  74 W5        29.99S
6HR MIN TEMP:  59; 6HR MAX TEMP:  79;

$$

KSZ061>065-074>080-084>089-290700-
SOUTHWEST KANSAS

CITY           SKY/WX    TMP DP  RH WIND       PRES   REMARKS
DODGE CITY     CLEAR     57  43  59 SW6       30.07F
6HR MIN TEMP:  57; 6HR MAX TEMP:  77;

ELKHART          N/A     59  36  42 MISG        N/A
GARDEN CITY    CLEAR     56  41  57 W7        30.09S
6HR MIN TEMP:  54; 6HR MAX TEMP:  77;

GREAT BEND     CLEAR     56  48  74 W6        30.03R
LIBERAL        CLEAR     58  46  64 CALM      30.12R
PRATT          CLEAR     50  44  78 SW5       30.04S
6HR MIN TEMP:  50; 6HR MAX TEMP:  76;

$$

KSZ066>073-081>083-090>101-290700-
SOUTHEAST KANSAS

CITY           SKY/WX    TMP DP  RH WIND       PRES   REMARKS
CHANUTE        CLEAR     61  50  67 CALM      29.99S
6HR MIN TEMP:  59; 6HR MAX TEMP:  81;

COFFEYVILLE    CLEAR     60  57  89 S6        30.01R
6HR MIN TEMP:  60; 6HR MAX TEMP:  82;

HUTCHINSON     CLEAR     55  51  86 CALM      30.00R
6HR MIN TEMP:  54; 6HR MAX TEMP:  79;

MEDICINE LODGE   N/A     58  49  72 CALM      30.04S
NEWTON         CLEAR     63  47  55 SW8       30.02R
PARSONS        CLEAR     56  53  90 CALM      30.01S
6HR MIN TEMP:  55; 6HR MAX TEMP:  80;

WICHITA INTL   CLEAR     59  49  69 SW6       30.01R
6HR MIN TEMP:  57; 6HR MAX TEMP:  82;

WICHITA JABRA  CLEAR     63  48  58 SW9       30.01R
6HR MIN TEMP:  62; 6HR MAX TEMP:  80;

WICHITA MCCONL CLEAR     62  47  58 SW5       30.01R
WINFIELD       CLEAR     62  50  64 CALM      30.03S
6HR MIN TEMP:  57; 6HR MAX TEMP:  80;

$$

KSZ007>012-019>026-033>040-048>060-102>105-290700-
NORTHEAST KANSAS

CITY           SKY/WX    TMP DP  RH WIND       PRES   REMARKS
CONCORDIA      CLEAR     60  51  72 W7        29.96F
6HR MIN TEMP:  60; 6HR MAX TEMP:  76;

EMPORIA        CLEAR     61  51  70 SW3       29.99R
6HR MIN TEMP:  58; 6HR MAX TEMP:  78;

LAWRENCE       CLEAR     56  54  93 CALM      29.95R
6HR MIN TEMP:  56; 6HR MAX TEMP:  78;

MANHATTAN      CLEAR     59  52  77 SW5       29.95S
6HR MIN TEMP:  57; 6HR MAX TEMP:  80;

MARYSVILLE     CLEAR     55  50  82 CALM      29.93F
OLATHE IND     CLEAR     59  51  75 S5        29.97R
6HR MIN TEMP:  59; 6HR MAX TEMP:  77;

OLATHE EXE     CLEAR     60  52  74 CALM      29.96R
6HR MIN TEMP:  59; 6HR MAX TEMP:  77;

SALINA         CLEAR     59  52  77 S3        29.98R
6HR MIN TEMP:  59; 6HR MAX TEMP:  82;

TOPEKA BILLARD CLEAR     61  55  81 CALM      29.94R
6HR MIN TEMP:  61; 6HR MAX TEMP:  80;

TOPEKA FORBES  CLEAR     59  53  80 S7        29.95R
6HR MIN TEMP:  59; 6HR MAX TEMP:  80;

$$




USA.gov is the U.S. government's official web portal to all federal, state and local government web resources and services.